Regional Weather Roundup
Issued by NWS

Home | Current Version | Previous Version | Graphics & Text | Print | Product List | Glossary On
Versions: 1 2 3 4 5 6 7 8 9 10 11 12 13 14 15 16 17 18 19 20 21 22 23 24 25 26 27 28 29 30 31 32 33 34 35 36 37 38 39 40 41 42 43 44 45 46 47 48 49 50
000
ASUS43 KLMK 091510
RWRKY
KENTUCKY REGIONAL WEATHER ROUNDUP
NATIONAL WEATHER SERVICE LOUISVILLE KY
1000 AM EST FRI DEC 09 2016

NOTE "FAIR" INDICATES FEW OR NO CLOUDS BELOW 12,000 FEET
WITH NO SIGNIFICANT WEATHER AND/OR OBSTRUCTIONS TO VISIBILITY.

KYZ001>023-026-027-061>063-070>075-091600-
WESTERN AND SOUTH CENTRAL KENTUCKY

CITY           SKY/WX    TMP DP  RH WIND       PRES   REMARKS
PADUCAH        SUNNY     26  15  63 NW8       30.64R WCI  18
HENDERSON      CLOUDY    25  12  58 N5        30.64S WCI  19
OWENSBORO      CLOUDY    25  16  68 N7        30.64R WCI  17
HOPKINSVILLE   SUNNY     26  15  63 N6        30.61R WCI  19
BOWLING GREEN  CLOUDY    27  14  58 N5        30.62R WCI  22
GLASGOW        CLOUDY    25  16  66 CALM      30.60R
$$

KYZ024-025-028>034-038-045-046-053-091600-
NORTH CENTRAL KENTUCKY

CITY           SKY/WX    TMP DP  RH WIND       PRES   REMARKS
LOUISVILLE/SDF FLURRIES  24  12  60 NW6       30.61R WCI  17
LOUISVILLE/LOU CLOUDY    24  12  60 NW8       30.62R WCI  15
FORT KNOX      FLURRIES  24  14  66 W7        30.57S WCI  16
$$

KYZ035>037-039>044-047>052-055>060-089>105-091600-
NORTHEAST KENTUCKY

CITY           SKY/WX    TMP DP  RH WIND       PRES   REMARKS
LEXINGTON      CLOUDY    22  12  65 W7        30.57R WCI  13
COVINGTON      FLURRIES  22  14  71 W13       30.54R WCI  10
FRANKFORT      CLOUDY    23  11  60 W6        30.58R WCI  16
$$

KYZ054-064>069-076>088-106>120-091600-
SOUTHEAST KENTUCKY

CITY           SKY/WX    TMP DP  RH WIND       PRES   REMARKS
JACKSON        CLOUDY    22  12  65 W5        30.52R WCI  16
LONDON         CLOUDY    23  11  60 NW7       30.54R WCI  15
SOMERSET       FLURRIES  23  12  63 CALM      30.59R
MIDDLESBORO    CLOUDY    24  14  66 N6        30.54S WCI  17
MONTICELLO     FLURRIES  24  16  71 N10       30.59R WCI  14
$$




USA.gov is the U.S. government's official web portal to all federal, state and local government web resources and services.